Location: *
(58.7167°N, 26.1833°E)
Time: 04:50:23
(UTC+00:00)

SL-16 R/B - Pass Details

Date: 25 August 2019
Orbit: 842 x 848 km, 71.0° (Epoch: 17 September)

Event Time Altitude Azimuth Distance (km) Brightness Sun altitude
Rises 20:35:33 0° 308° (NW) 3,411 6.5 -17.6°
Reaches altitude 10° 20:38:21 10° 320° (NW) 2,475 5.8 -17.8°
Maximum altitude 20:43:13 28° 19° (NNE) 1,533 4.0 -18.1°
Drops below altitude 10° 20:48:05 10° 79° (ENE) 2,474 4.5 -18.3°
Sets 20:50:54 0° 90° (E) 3,408 5.1 -18.5°
